[[{"header":{"parameterUnit":"m.s-1","parameterCategory":2,"la1":30.2991,"la2":30.254,"lo1":-89.0895,"lo2":-89.0444,"dy":0.0017,"dx":0.0017,"nx":28,"ny":28,"refTime":"2025-08-20T21:00:00:Z","depth":"0","parameterNumber":2,"parameterNumberName":"U-component_of_CURRENTS"},"data":[0,0,0,0,0,0,0,0,0,0,0,0,0,0,0,0,0,0,0,0,0,0,0,0,0,0,0,0,0,0,0,0,0,0,0,0,0,0,0,0,0,0,0,0,0,0,0,0,0,0,0,0,0,0,0,0,0,0,0.3086,0.3087,0,0.3148,0.3148,0.3149,0.3157,0.3157,0.3156,0.3156,0.3181,0.3182,0.3183,0,0,0,0,0,0,0,0,0,0,0,0,0,0.299,0.2991,0.3086,0.3087,0.3088,0.3148,0.3148,0.3149,0.3157,0.3157,0.3156,0.3155,0.318,0.3182,0.3183,0,0,0,0,0,0,0,0,0,0,0,0,0,0.3038,0.2992,0.3086,0.31,0.3102,0.3148,0.3148,0.3149,0.3157,0.3157,0.3156,0.3155,0.318,0.3181,0.3183,0.3208,0,0,0.3188,0.3189,0,0,0,0,0,0,0,0,0.3035,0.3042,0.3097,0.3099,0.3101,0.3145,0.3124,0.3167,0.3157,0.3135,0.3156,0.3155,0.3167,0.3169,0.3181,0.3209,0.321,0.3188,0.3189,0.319,0.3191,0,0,0,0,0,0,0,0.3032,0.3039,0.3109,0.3098,0.3101,0.3108,0.3114,0.3132,0.3152,0.3137,0.3138,0.3147,0.3167,0.318,0.3182,0.321,0.3188,0.319,0.3191,0.3191,0.3308,0.331,0,0,0,0,0,0,0.3027,0.3036,0.3107,0.3111,0.3067,0.3111,0.3117,0.3131,0.3153,0.3156,0.3148,0.3147,0.3177,0.318,0.3183,0.3259,0.319,0.3192,0.3193,0.3306,0.3308,0.3311,0,0,0,0,0,0,0.3025,0.3033,0.3105,0.3075,0.3085,0.3113,0.3128,0.3132,0.3146,0.3162,0.3164,0.3157,0.3177,0.318,0.3224,0.3258,0.3192,0.3194,0.3303,0.3307,0.3309,0.3383,0,0,0,0,0,0,0.3022,0.3032,0.3041,0.3075,0.3087,0.3142,0.3129,0.3134,0.3153,0.3153,0.3171,0.3172,0.3177,0.3222,0.3226,0.3259,0.3195,0.3301,0.3305,0.3308,0.3378,0.3388,0.3397,0,0,0,0,0,0.3019,0.3033,0.3041,0.305,0.3098,0.3144,0.3151,0.3166,0.3154,0.3172,0.3193,0.3172,0.3249,0.3225,0.3229,0.3264,0.3299,0.3304,0.3308,0.3373,0.3386,0.3397,0,0,0,0,0,0,0.2995,0.3036,0.3046,0.3072,0.311,0.3146,0.3163,0.3169,0.3199,0.3198,0.3201,0.3206,0.3261,0.3253,0.3226,0.3311,0.3269,0.3275,0.3317,0.3329,0.3339,0.333,0.3197,0,0,0,0,0,0.2995,0.3016,0.306,0.3082,0.3103,0.3133,0.3151,0.3166,0.3196,0.3207,0.3222,0.3244,0.3285,0.3297,0.3328,0.3369,0.3395,0.3394,0.3403,0.3411,0.3409,0.3469,0.3484,0.3326,0.3326,0.3326,0,0,0.2992,0.3017,0.3029,0.3079,0.3107,0.3157,0.3142,0.3179,0.3219,0.3206,0.326,0.3282,0.3306,0.3365,0.3387,0.3359,0.3485,0.3417,0.3424,0.3417,0.3475,0.3491,0.3504,0.3329,0.3329,0.3328,0,0,0.3007,0.3022,0.3054,0.3093,0.3144,0.3169,0.3181,0.3226,0.3245,0.3302,0.3313,0.3351,0.34,0.343,0.3449,0.3526,0.354,0.3537,0.3571,0.3631,0.3644,0.3656,0.3771,0.3792,0.3534,0.3534,0.3534,0,0.3003,0.305,0.3071,0.3122,0.3153,0.3177,0.3227,0.3262,0.3315,0.3335,0.3328,0.3419,0.3432,0.3508,0.354,0.3546,0.3602,0.3525,0.3643,0.3655,0.3665,0.378,0.3802,0.3538,0.3538,0.3537,0.3537,0,0.3053,0.3096,0.3119,0.3191,0.3228,0.3272,0.3326,0.336,0.3378,0.341,0.3481,0.3512,0.3558,0.3578,0.3585,0.3671,0.37,0.3656,0.3611,0.3686,0.3803,0.3825,0.3544,0.3542,0.3541,0.354,0,0,0.3024,0.3133,0.3139,0.319,0.3265,0.3304,0.3368,0.3433,0.3483,0.3522,0.3591,0.3647,0.3649,0.3671,0.3686,0.3732,0.3876,0.3729,0.3731,0.3841,0.4068,0.4048,0.4071,0.3855,0.3858,0.386,0.4142,0,0.3056,0.3162,0.3196,0.329,0.3355,0.3389,0.3451,0.3509,0.3559,0.3637,0.366,0.3741,0.3692,0.3736,0.3769,0.3865,0.3928,0.3807,0.3981,0.3987,0.3955,0.4091,0.3922,0.4153,0.4163,0.4167,0.417,0,0.309,0.3161,0.3261,0.3362,0.3387,0.3437,0.3527,0.359,0.3687,0.3727,0.378,0.3822,0.392,0.3857,0.4022,0.3955,0.4012,0.4064,0.4075,0.4034,0.4005,0.4068,0.4192,0.4046,0.4203,0.42,0.4198,0,0.3085,0.3196,0.3274,0.3313,0.3435,0.3465,0.3517,0.361,0.3678,0.3799,0.3876,0.3959,0.4051,0.411,0.4201,0.4138,0.4392,0.4315,0.4353,0.4356,0.4231,0.4216,0.4218,0.4414,0.4413,0.4413,0.4412,0,0.3117,0.318,0.3278,0.3334,0.342,0.3482,0.3575,0.3641,0.3751,0.3849,0.3922,0.4027,0.4116,0.4254,0.4289,0.4421,0.4465,0.4403,0.4426,0.4259,0.4244,0.4121,0.4058,0.4423,0.4421,0.4419,0.4417,0,0.3137,0.3194,0.3301,0.3409,0.3435,0.3504,0.3611,0.3672,0.3787,0.3927,0.3978,0.4145,0.4331,0.4429,0.4592,0.4564,0.4549,0.4687,0.4518,0.4514,0.4363,0.4311,0.4244,0.4125,0.4796,0.4797,0.4798,0,0.3177,0.3233,0.3353,0.339,0.344,0.3529,0.3573,0.3682,0.3748,0.3985,0.4048,0.4287,0.441,0.4677,0.4707,0.4824,0.4625,0.4709,0.4516,0.437,0.4332,0.4146,0.4035,0.4427,0.4425,0.4423,0.4422,0,0.3247,0.3275,0.3345,0.3431,0.3477,0.3538,0.3609,0.3667,0.3799,0.393,0.4101,0.4233,0.45,0.4551,0.4715,0.4733,0.4469,0.4676,0.4548,0.4075,0.3849,0.3739,0.4275,0.4406,0.4408,0.4409,0.441,0.441,0.3283,0.332,0.3382,0.3441,0.3489,0.3504,0.3509,0.3592,0.3694,0.383,0.4034,0.416,0.4325,0.453,0.4541,0.4427,0.4399,0.4263,0.424,0.4087,0.3853,0.4389,0.4506,0.4508,0.4509,0.4511,0.4512,0,0.3295,0.3308,0.3375,0.3416,0.3417,0.3457,0.3486,0.3451,0.3505,0.3696,0.383,0.395,0.4034,0.4124,0.4131,0.399,0.3787,0.3872,0.3539,0.3472,0.3983,0.3841,0.3786,0.3786,0.3786,0.3786,0.3786,0.3787,0.3305,0.3318,0.3322,0.3307,0.3315,0.3245,0.3217,0.3205,0.3276,0.3333,0.339,0.3512,0.3706,0.3826,0.3702,0.3613,0.3308,0.3193,0.3183,0.3506,0.3537,0.3566,0.3413,0.327,0.3269,0.2492,0.2486,0.2482]},{"header":{"parameterUnit":"m.s-1","parameterCategory":2,"la1":30.2991,"la2":30.254,"lo1":-89.0895,"lo2":-89.0444,"dy":0.0017,"dx":0.0017,"nx":28,"ny":28,"refTime":"2025-08-20T21:00:00:Z","depth":"0","parameterNumber":3,"parameterNumberName":"V-component_of_CURRENTS"},"data":[0,0,0,0,0,0,0,0,0,0,0,0,0,0,0,0,0,0,0,0,0,0,0,0,0,0,0,0,0,0,0,0,0,0,0,0,0,0,0,0,0,0,0,0,0,0,0,0,0,0,0,0,0,0,0,0,0,0,0.0233,0.0233,0,0.0166,0.0165,0.0164,0.0111,0.011,0.011,0.011,0.0002,-0.0,-0.0003,0,0,0,0,0,0,0,0,0,0,0,0,0,0.0275,0.0275,0.0233,0.0233,0.0232,0.0166,0.0165,0.0163,0.0111,0.011,0.011,0.011,0.0003,0.0,-0.0003,0,0,0,0,0,0,0,0,0,0,0,0,0,0.0235,0.0274,0.0233,0.0199,0.0196,0.0166,0.0165,0.0163,0.0111,0.011,0.011,0.0109,0.0004,0.0,-0.0003,-0.0017,0,0,-0.0015,-0.0017,0,0,0,0,0,0,0,0,0.0238,0.0233,0.0205,0.0202,0.0198,0.0148,0.014,0.0101,0.0111,0.0141,0.011,0.0109,0.0049,0.0041,0.0027,-0.0022,-0.0027,-0.0016,-0.0018,-0.0019,-0.0021,0,0,0,0,0,0,0,0.024,0.0236,0.0204,0.0204,0.02,0.0173,0.0167,0.0132,0.0096,0.0138,0.0135,0.0131,0.0046,0.0031,0.0024,-0.0029,-0.0015,-0.0019,-0.0021,-0.0023,-0.0093,-0.0092,0,0,0,0,0,0,0.0256,0.0239,0.0207,0.0203,0.0219,0.0173,0.0166,0.0163,0.0097,0.0088,0.0131,0.0128,0.0038,0.0029,0.002,0.0011,-0.0019,-0.0023,-0.0025,-0.0093,-0.0093,-0.0092,0,0,0,0,0,0,0.0257,0.0254,0.0209,0.0221,0.0213,0.0173,0.0169,0.0162,0.0149,0.0093,0.0082,0.0127,0.0037,0.0026,-0.0002,0.0006,-0.0025,-0.0028,-0.0094,-0.0093,-0.0092,-0.0014,0,0,0,0,0,0,0.0258,0.0254,0.0259,0.0222,0.0213,0.0201,0.017,0.0161,0.0148,0.0144,0.0086,0.0075,0.0036,0.0004,-0.0006,0.0,-0.0031,-0.0094,-0.0093,-0.0093,-0.0017,-0.0011,-0.0005,0,0,0,0,0,0.026,0.027,0.026,0.0256,0.0221,0.0202,0.0196,0.0163,0.0148,0.0149,0.0111,0.0077,0.0002,0.0002,-0.001,-0.0005,-0.0095,-0.0094,-0.0093,-0.002,-0.0012,-0.0006,0,0,0,0,0,0,0.029,0.0265,0.0253,0.0254,0.0235,0.0194,0.0193,0.0171,0.0141,0.0135,0.0082,0.0069,0.0048,0.0012,0.0013,-0.0023,-0.0052,-0.0053,0.0007,0.0014,0.002,0.0042,-0.0034,0,0,0,0,0,0.0301,0.0301,0.0273,0.0275,0.0269,0.0233,0.0222,0.02,0.0168,0.0154,0.0118,0.0076,0.0042,0.0022,-0.0013,-0.0032,-0.0041,-0.0036,-0.003,-0.0025,-0.0015,-0.0011,-0.0003,-0.0089,-0.0089,-0.0089,0,0,0.0313,0.03,0.0299,0.0281,0.0263,0.0261,0.0225,0.0213,0.0209,0.0147,0.0135,0.0097,0.0042,0.0022,0.0009,-0.0007,-0.0005,-0.0024,-0.0019,-0.0012,-0.0009,-0.0,0.0007,-0.0088,-0.0088,-0.0088,0,0,0.0341,0.0328,0.0339,0.0328,0.0307,0.0284,0.0286,0.0253,0.0237,0.022,0.0176,0.0148,0.0097,0.0063,0.0037,0.0055,0.0029,0.0041,0.0086,0.009,0.0098,0.0104,0.0112,0.0119,0.0042,0.0042,0.0042,0,0.0358,0.0367,0.034,0.0348,0.0345,0.0301,0.0313,0.0291,0.0253,0.0253,0.0228,0.0174,0.0117,0.0102,0.0097,0.0069,0.0072,0.0064,0.01,0.0106,0.0112,0.0118,0.0124,0.0046,0.0046,0.0045,0.0045,0,0.0393,0.0401,0.0408,0.0403,0.0396,0.0398,0.0368,0.0361,0.0338,0.0319,0.0309,0.0246,0.022,0.019,0.0139,0.0148,0.0139,0.0112,0.0088,0.0126,0.0129,0.0135,0.0052,0.005,0.0049,0.0048,0,0,0.0428,0.0433,0.0436,0.0456,0.0426,0.0433,0.0425,0.0419,0.0449,0.0398,0.0442,0.0347,0.0328,0.0298,0.0243,0.0227,0.0248,0.0185,0.0184,0.0204,0.0271,0.0253,0.0257,0.0235,0.0236,0.0237,0.0262,0,0.0465,0.0508,0.0487,0.0525,0.0548,0.051,0.0523,0.051,0.0501,0.0536,0.047,0.049,0.0366,0.0382,0.0335,0.0287,0.0264,0.0244,0.0222,0.0221,0.021,0.0263,0.0228,0.0247,0.0267,0.0268,0.0268,0,0.0504,0.0532,0.0584,0.0615,0.0623,0.064,0.0674,0.0681,0.0692,0.0694,0.0681,0.0652,0.0616,0.0527,0.0437,0.0436,0.0353,0.03,0.0299,0.026,0.0213,0.0209,0.0256,0.0045,0.0276,0.0275,0.0275,0,0.0568,0.0597,0.0652,0.066,0.0687,0.0712,0.0727,0.074,0.0796,0.0827,0.0902,0.0818,0.0855,0.0717,0.0571,0.0521,0.0499,0.042,0.0321,0.032,0.0273,0.0265,0.0122,0.0362,0.0362,0.0362,0.0362,0,0.0623,0.0668,0.0698,0.0737,0.0831,0.0805,0.0912,0.0918,0.0982,0.1101,0.1012,0.111,0.0911,0.0865,0.0666,0.0529,0.057,0.0349,0.0332,0.0299,0.0293,0.0093,-0.0021,0.0363,0.0363,0.0362,0.0362,0,0.0709,0.071,0.0798,0.0849,0.0874,0.0956,0.1058,0.1142,0.1181,0.1347,0.1383,0.1374,0.1313,0.11,0.0926,0.0709,0.0428,0.0479,0.0455,0.0433,0.0108,0.0001,-0.0126,-0.0209,0.0369,0.0369,0.0369,0,0.077,0.0818,0.0917,0.0987,0.1025,0.113,0.1213,0.1253,0.1358,0.152,0.1627,0.1637,0.1657,0.1388,0.1018,0.0699,0.0476,0.0448,0.0318,0.0104,-0.0028,-0.0103,-0.0169,0.0289,0.0289,0.0288,0.0287,0,0.0903,0.0934,0.1009,0.1147,0.1248,0.1371,0.149,0.1602,0.1686,0.1835,0.2007,0.2045,0.1808,0.149,0.1056,0.0795,0.0291,0.0424,0.021,-0.009,-0.0186,-0.0277,0.0259,0.0282,0.0282,0.0283,0.0283,0.0283,0.1023,0.1098,0.1184,0.1311,0.1429,0.1576,0.1694,0.1836,0.2026,0.2239,0.2262,0.2342,0.1856,0.1262,0.0923,0.0243,0.0268,0.0002,-0.0101,-0.015,-0.0264,0.0265,0.026,0.026,0.0261,0.0261,0.0261,0,0.1146,0.1203,0.1335,0.1474,0.1607,0.1646,0.1849,0.1976,0.2207,0.2398,0.2533,0.2289,0.1713,0.11,0.0212,-0.0218,-0.0391,-0.046,-0.0605,-0.0643,-0.017,-0.021,-0.0325,-0.0325,-0.0325,-0.0325,-0.0325,-0.0324,0.1215,0.1328,0.1366,0.1576,0.1684,0.1867,0.1983,0.2193,0.2351,0.2545,0.2562,0.2531,0.1993,0.0499,-0.0496,-0.072,-0.1023,-0.1078,-0.119,-0.0926,-0.0893,-0.086,-0.0927,-0.1191,-0.1192,-0.1633,-0.1638,-0.1642]}],[{"header":{"parameterUnit":"m.s-1","parameterCategory":2,"la1":30.2991,"la2":30.254,"lo1":-89.0895,"lo2":-89.0444,"dy":0.0017,"dx":0.0017,"nx":28,"ny":28,"refTime":"2025-08-20T21:00:00:Z","depth":"2","parameterNumber":2,"parameterNumberName":"U-component_of_CURRENTS"},"data":[0,0,0,0,0,0,0,0,0,0,0,0,0,0,0,0,0,0,0,0,0,0,0,0,0,0,0,0,0,0,0,0,0,0,0,0,0,0,0,0,0,0,0,0,0,0,0,0,0,0,0,0,0,0,0,0,0,0,0.2527,0.2528,0,0.2596,0.2597,0.2597,0.261,0.261,0.2609,0.2609,0.2657,0.2658,0.266,0,0,0,0,0,0,0,0,0,0,0,0,0,0.2441,0.2442,0.2527,0.2528,0.2529,0.2596,0.2597,0.2597,0.261,0.261,0.2609,0.2609,0.2656,0.2658,0.266,0,0,0,0,0,0,0,0,0,0,0,0,0,0.2487,0.2442,0.2526,0.2547,0.2549,0.2596,0.2597,0.2598,0.261,0.261,0.2609,0.2609,0.2656,0.2658,0.266,0.2679,0,0,0.2667,0.2668,0,0,0,0,0,0,0,0,0.2484,0.2489,0.2542,0.2545,0.2549,0.2598,0.2585,0.2625,0.261,0.2582,0.2609,0.2609,0.2638,0.2642,0.265,0.2681,0.2683,0.2667,0.2668,0.2669,0.267,0,0,0,0,0,0,0,0.2481,0.2487,0.255,0.2544,0.2548,0.2565,0.2571,0.2592,0.2607,0.2585,0.2587,0.2602,0.2639,0.2648,0.2651,0.2684,0.2667,0.2669,0.267,0.2671,0.2744,0.2745,0,0,0,0,0,0,0.248,0.2484,0.2548,0.2552,0.252,0.2567,0.2573,0.2579,0.2607,0.2613,0.2602,0.2602,0.2644,0.2648,0.2653,0.2723,0.2669,0.2671,0.2672,0.2744,0.2745,0.2745,0,0,0,0,0,0,0.2477,0.2484,0.2545,0.2524,0.2533,0.2569,0.2575,0.258,0.2597,0.2622,0.2626,0.2615,0.2644,0.265,0.2681,0.2723,0.2672,0.2674,0.2743,0.2744,0.2745,0.2835,0,0,0,0,0,0,0.2474,0.2483,0.2492,0.2523,0.2534,0.2572,0.2576,0.2582,0.2609,0.2609,0.2634,0.2638,0.2644,0.2678,0.2683,0.2725,0.2676,0.2742,0.2744,0.2745,0.2831,0.2839,0.2845,0,0,0,0,0,0.2471,0.249,0.2492,0.25,0.2544,0.2573,0.258,0.2602,0.2609,0.2616,0.2638,0.2637,0.2689,0.2681,0.2687,0.2731,0.2742,0.2743,0.2745,0.2828,0.2837,0.2845,0,0,0,0,0,0,0.2454,0.2495,0.2497,0.2525,0.2545,0.2577,0.2602,0.2608,0.2632,0.2641,0.2652,0.2657,0.2705,0.2694,0.2684,0.275,0.2713,0.2716,0.2774,0.2783,0.279,0.2792,0.2678,0,0,0,0,0,0.2455,0.2477,0.2509,0.2526,0.2548,0.2573,0.2592,0.2604,0.2629,0.264,0.2665,0.2686,0.2714,0.2728,0.2749,0.2786,0.2807,0.2812,0.2819,0.2826,0.2828,0.2905,0.2921,0.275,0.275,0.275,0,0,0.2452,0.2477,0.2488,0.2524,0.255,0.258,0.2584,0.2618,0.2644,0.2643,0.2697,0.272,0.2729,0.2777,0.2795,0.2775,0.2887,0.2828,0.2834,0.2832,0.2908,0.2925,0.2941,0.2751,0.2751,0.2751,0,0,0.2461,0.2483,0.251,0.253,0.2572,0.2593,0.2604,0.2649,0.2674,0.2716,0.2733,0.2775,0.281,0.2838,0.285,0.2903,0.2927,0.2909,0.295,0.3025,0.3041,0.3055,0.3118,0.3136,0.2908,0.2909,0.2909,0,0.2459,0.249,0.2519,0.2549,0.2577,0.26,0.2635,0.2662,0.2708,0.2754,0.2738,0.2829,0.2839,0.2908,0.2927,0.2925,0.2967,0.2924,0.3039,0.3053,0.3066,0.3127,0.3146,0.2913,0.2912,0.2912,0.2912,0,0.2481,0.2512,0.2534,0.2578,0.261,0.2641,0.2687,0.2738,0.2774,0.2809,0.2892,0.2905,0.2962,0.2971,0.2967,0.3064,0.3067,0.3049,0.3026,0.3089,0.3148,0.3167,0.2919,0.2918,0.2916,0.2915,0,0,0.246,0.2538,0.2541,0.258,0.2631,0.2665,0.2732,0.2813,0.2888,0.2918,0.3015,0.3045,0.3069,0.3081,0.3088,0.3139,0.3269,0.3136,0.3138,0.3214,0.3447,0.3329,0.3338,0.3288,0.3291,0.3294,0.3458,0,0.2469,0.2533,0.2568,0.2631,0.2681,0.2737,0.2835,0.291,0.2948,0.3051,0.308,0.316,0.3103,0.3152,0.3193,0.3266,0.332,0.3226,0.3359,0.3362,0.3264,0.3356,0.31,0.3214,0.3476,0.348,0.3482,0,0.2479,0.2525,0.2602,0.2724,0.276,0.2816,0.2964,0.3044,0.3177,0.3217,0.3261,0.3282,0.3367,0.3304,0.3431,0.3383,0.3419,0.3449,0.3456,0.3323,0.3279,0.3188,0.3238,0.3513,0.3511,0.3508,0.3506,0,0.2463,0.2549,0.2622,0.2648,0.2797,0.2879,0.2978,0.3116,0.3214,0.332,0.3375,0.345,0.3525,0.3566,0.3589,0.3547,0.3728,0.3679,0.3598,0.3591,0.3382,0.3349,0.3769,0.3769,0.3769,0.3768,0.3768,0,0.2462,0.2523,0.2636,0.267,0.2823,0.2929,0.3078,0.3187,0.3345,0.3444,0.347,0.3532,0.36,0.3677,0.3673,0.3696,0.3798,0.3627,0.3633,0.3403,0.3372,0.3623,0.3604,0.3775,0.3773,0.3772,0.3771,0,0.2458,0.2522,0.264,0.2787,0.2823,0.2967,0.3132,0.3221,0.3386,0.3498,0.3546,0.3676,0.3762,0.3787,0.3896,0.3814,0.3842,0.3819,0.3535,0.3501,0.3635,0.3619,0.3761,0.3759,0.3756,0.3754,0.3753,0,0.2492,0.2564,0.2684,0.277,0.2843,0.2997,0.3078,0.3235,0.3293,0.3544,0.3592,0.3752,0.3757,0.3873,0.3811,0.3794,0.3848,0.3532,0.3372,0.3647,0.364,0.3626,0.3613,0.3152,0.3146,0.3141,0.3137,0,0.2609,0.266,0.2712,0.2797,0.2889,0.298,0.3088,0.313,0.3307,0.3359,0.348,0.3539,0.3671,0.3546,0.3562,0.3505,0.3503,0.3421,0.3838,0.3167,0.3079,0.3069,0.3075,0.309,0.3095,0.3098,0.3101,0.3103,0.2699,0.2747,0.2763,0.2829,0.2929,0.2949,0.2948,0.2971,0.3013,0.3057,0.326,0.3234,0.332,0.3187,0.3108,0.3058,0.326,0.3101,0.3116,0.3136,0.301,0.2919,0.2878,0.2881,0.2884,0.2887,0.2889,0,0.2701,0.2705,0.2783,0.2804,0.2807,0.2891,0.2917,0.2806,0.2682,0.2788,0.2801,0.2619,0.26,0.2706,0.256,0.2541,0.2502,0.2444,0.2381,0.243,0.2473,0.231,0.1995,0.1991,0.1988,0.1986,0,0,0.2709,0.2677,0.262,0.2599,0.2652,0.2591,0.2574,0.2402,0.2396,0.2215,0.221,0.2438,0.2613,0.2248,0.2222,0.2094,0.2237,0.2016,0.2743,0.2719,0.2757,0.2872,0.2679,0,0,0,0,0]},{"header":{"parameterUnit":"m.s-1","parameterCategory":2,"la1":30.2991,"la2":30.254,"lo1":-89.0895,"lo2":-89.0444,"dy":0.0017,"dx":0.0017,"nx":28,"ny":28,"refTime":"2025-08-20T21:00:00:Z","depth":"2","parameterNumber":3,"parameterNumberName":"V-component_of_CURRENTS"},"data":[0,0,0,0,0,0,0,0,0,0,0,0,0,0,0,0,0,0,0,0,0,0,0,0,0,0,0,0,0,0,0,0,0,0,0,0,0,0,0,0,0,0,0,0,0,0,0,0,0,0,0,0,0,0,0,0,0,0,-0.0011,-0.0012,0,-0.0061,-0.0062,-0.0062,-0.0108,-0.0108,-0.0108,-0.0109,-0.0195,-0.0197,-0.0199,0,0,0,0,0,0,0,0,0,0,0,0,0,0.002,0.002,-0.0011,-0.0012,-0.0012,-0.0061,-0.0062,-0.0063,-0.0107,-0.0108,-0.0108,-0.0109,-0.0194,-0.0197,-0.0199,0,0,0,0,0,0,0,0,0,0,0,0,0,-0.001,0.002,-0.0011,-0.0039,-0.0042,-0.0061,-0.0062,-0.0063,-0.0107,-0.0108,-0.0108,-0.0109,-0.0194,-0.0197,-0.0199,-0.0207,0,0,-0.0209,-0.021,0,0,0,0,0,0,0,0,-0.0008,-0.0011,-0.0034,-0.0037,-0.004,-0.0077,-0.0082,-0.0112,-0.0107,-0.0085,-0.0109,-0.0109,-0.0157,-0.0163,-0.0174,-0.0211,-0.0215,-0.0209,-0.0211,-0.0212,-0.0213,0,0,0,0,0,0,0,-0.0006,-0.0009,-0.0033,-0.0035,-0.0038,-0.0057,-0.0062,-0.0088,-0.012,-0.0087,-0.009,-0.0092,-0.0159,-0.0171,-0.0176,-0.0216,-0.0209,-0.0211,-0.0213,-0.0214,-0.0273,-0.0273,0,0,0,0,0,0,0.0006,-0.0007,-0.0032,-0.0034,-0.0023,-0.0057,-0.0062,-0.0066,-0.0119,-0.0126,-0.0091,-0.0093,-0.0165,-0.0173,-0.0179,-0.0188,-0.0212,-0.0215,-0.0216,-0.0273,-0.0273,-0.0273,0,0,0,0,0,0,0.0007,0.0005,-0.003,-0.002,-0.0026,-0.0057,-0.0061,-0.0067,-0.0076,-0.0121,-0.013,-0.0093,-0.0166,-0.0175,-0.0198,-0.0192,-0.0216,-0.0219,-0.0273,-0.0273,-0.0273,-0.0209,0,0,0,0,0,0,0.0008,0.0005,0.0009,-0.0019,-0.0026,-0.0032,-0.006,-0.0067,-0.0075,-0.0079,-0.0125,-0.0134,-0.0167,-0.0193,-0.0201,-0.0197,-0.0221,-0.0274,-0.0273,-0.0273,-0.0211,-0.0206,-0.0202,0,0,0,0,0,0.001,0.0021,0.0009,0.0007,-0.002,-0.0031,-0.0036,-0.0061,-0.0074,-0.0072,-0.0105,-0.0133,-0.0196,-0.0195,-0.0204,-0.0201,-0.0274,-0.0273,-0.0273,-0.0213,-0.0207,-0.0202,0,0,0,0,0,0,0.0036,0.0017,0.0003,0.0008,-0.0007,-0.0037,-0.0036,-0.0054,-0.0078,-0.0084,-0.0128,-0.0139,-0.0158,-0.0187,-0.0184,-0.0217,-0.024,-0.0242,-0.0192,-0.0187,-0.0182,-0.0156,-0.0223,0,0,0,0,0,0.0044,0.0047,0.0024,0.0027,0.0024,-0.0005,-0.0011,-0.003,-0.0055,-0.0066,-0.0095,-0.0131,-0.0164,-0.0179,-0.021,-0.0224,-0.0244,-0.0229,-0.0225,-0.0221,-0.0206,-0.0221,-0.0216,-0.0271,-0.0271,-0.0271,0,0,0.0054,0.0045,0.0046,0.0033,0.0019,0.0023,-0.001,-0.0017,-0.0019,-0.0072,-0.008,-0.0115,-0.0164,-0.0183,-0.0194,-0.0205,-0.0219,-0.022,-0.0216,-0.0203,-0.022,-0.0214,-0.021,-0.0271,-0.0271,-0.0271,0,0,0.008,0.007,0.0081,0.0076,0.0062,0.0045,0.0048,0.0024,0.0008,-0.0005,-0.0047,-0.007,-0.0115,-0.0145,-0.0169,-0.0155,-0.0194,-0.0174,-0.0129,-0.0144,-0.0139,-0.0135,-0.0164,-0.0163,-0.0171,-0.0171,-0.0171,0,0.0094,0.0105,0.0084,0.0095,0.0098,0.0062,0.0077,0.0056,0.0027,0.0024,0.0001,-0.0049,-0.0095,-0.0114,-0.0118,-0.0143,-0.0164,-0.0145,-0.0136,-0.0132,-0.0129,-0.016,-0.0159,-0.0168,-0.0168,-0.0168,-0.0168,0,0.0128,0.0139,0.0148,0.0151,0.0149,0.0158,0.0131,0.0124,0.0103,0.0086,0.007,0.0015,-0.001,-0.0037,-0.0079,-0.0082,-0.0108,-0.0127,-0.0145,-0.0119,-0.0154,-0.0155,-0.0163,-0.0164,-0.0165,-0.0166,0,0,0.0157,0.0171,0.0175,0.0188,0.0181,0.0183,0.0183,0.0179,0.0195,0.0155,0.0179,0.0105,0.0086,0.0058,0.0006,-0.0015,-0.0028,-0.0061,-0.0063,-0.008,-0.0071,-0.0135,-0.0142,-0.0046,-0.0045,-0.0045,-0.0107,0,0.0193,0.0233,0.0226,0.026,0.0279,0.0254,0.0271,0.0259,0.0242,0.0257,0.0201,0.0204,0.0117,0.0117,0.0076,0.0012,-0.0026,-0.001,-0.01,-0.0103,-0.0155,-0.0143,-0.0111,-0.0168,-0.0108,-0.0109,-0.0109,0,0.023,0.0255,0.0303,0.0328,0.0336,0.0354,0.0376,0.0387,0.0388,0.0374,0.0357,0.0324,0.0288,0.022,0.0112,0.0126,0.0029,-0.0032,-0.0036,-0.0114,-0.0168,-0.0183,-0.0172,-0.0111,-0.011,-0.011,-0.011,0,0.0268,0.0303,0.0348,0.0357,0.0386,0.0405,0.0425,0.0435,0.0471,0.0471,0.0499,0.0436,0.0434,0.0315,0.0165,0.0147,0.0049,0.001,-0.0145,-0.0151,-0.0149,-0.0157,-0.0071,-0.0071,-0.0071,-0.0071,-0.0071,0,0.0311,0.0342,0.0375,0.0402,0.0468,0.0469,0.0542,0.0542,0.0592,0.0652,0.0579,0.061,0.046,0.0381,0.0218,0.0036,0.0083,-0.0131,-0.0166,-0.013,-0.0134,-0.0104,-0.0106,-0.0073,-0.0073,-0.0072,-0.0072,0,0.0343,0.0367,0.0427,0.0475,0.0492,0.0552,0.0632,0.0675,0.0713,0.0792,0.0809,0.0767,0.0654,0.0473,0.0296,0.0118,-0.0051,-0.0137,-0.0096,-0.0126,-0.0258,-0.0257,-0.0303,-0.0305,-0.0308,-0.0309,-0.0311,0,0.0364,0.0407,0.0483,0.0531,0.0557,0.0637,0.0681,0.0733,0.0792,0.0883,0.0925,0.0872,0.0822,0.053,0.0234,-0.0055,-0.0086,-0.0234,-0.0275,-0.0249,-0.0279,-0.0274,-0.027,-0.025,-0.0251,-0.0252,-0.0253,0,0.0407,0.0444,0.0481,0.057,0.063,0.0717,0.0796,0.0869,0.094,0.102,0.1105,0.11,0.0835,0.0572,0.017,-0.003,-0.0185,-0.0264,-0.0218,-0.0207,-0.0208,-0.0235,-0.0231,-0.026,-0.0259,-0.0259,-0.0258,-0.0258,0.0418,0.0459,0.0497,0.058,0.0673,0.0769,0.0852,0.0944,0.1068,0.1207,0.1211,0.1221,0.0927,0.0429,0.0097,-0.0252,-0.0257,-0.0379,-0.0373,-0.0367,-0.0359,-0.0366,-0.0446,-0.0446,-0.0446,-0.0447,-0.0447,0,0.0383,0.0418,0.0493,0.0581,0.0685,0.0749,0.0896,0.1004,0.1155,0.1276,0.1368,0.1111,0.082,0.0493,-0.0032,-0.0366,-0.0364,-0.0456,-0.037,-0.0363,-0.0356,-0.0345,-0.0429,-0.043,-0.0431,-0.0431,0,0,0.0354,0.0369,0.04,0.0534,0.0647,0.0799,0.0909,0.1096,0.1241,0.1353,0.1391,0.1367,0.0957,0.0583,0.0149,-0.0129,-0.0167,-0.0187,-0.0172,-0.0014,-0.0002,-0.0293,-0.0266,0,0,0,0,0]}],[{"header":{"parameterUnit":"m.s-1","parameterCategory":2,"la1":30.2991,"la2":30.254,"lo1":-89.0895,"lo2":-89.0444,"dy":0.0017,"dx":0.0017,"nx":28,"ny":28,"refTime":"2025-08-20T21:00:00:Z","depth":"4","parameterNumber":2,"parameterNumberName":"U-component_of_CURRENTS"},"data":[0,0,0,0,0,0,0,0,0,0,0,0,0,0,0,0,0,0,0,0,0,0,0,0,0,0,0,0,0,0,0,0,0,0,0,0,0,0,0,0,0,0,0,0,0,0,0,0,0,0,0,0,0,0,0,0,0,0,0.1397,0.1398,0,0.1453,0.1453,0.1454,0.1494,0.1495,0.1496,0.1496,0.1565,0.1566,0.1567,0,0,0,0,0,0,0,0,0,0,0,0,0,0.1329,0.133,0.1397,0.1398,0.1399,0.1453,0.1453,0.1454,0.1494,0.1495,0.1496,0.1496,0.1565,0.1566,0.1567,0,0,0,0,0,0,0,0,0,0,0,0,0,0.1366,0.133,0.1397,0.1428,0.1432,0.1453,0.1454,0.1454,0.1494,0.1495,0.1496,0.1497,0.1564,0.1566,0.1568,0.156,0,0,0.1573,0.1574,0,0,0,0,0,0,0,0,0.1364,0.1368,0.1423,0.1426,0.143,0.1471,0.1455,0.1491,0.1494,0.1467,0.1496,0.1497,0.1536,0.154,0.1544,0.1563,0.1566,0.1574,0.1575,0.1575,0.1576,0,0,0,0,0,0,0,0.1361,0.1366,0.1416,0.1424,0.1428,0.1441,0.1447,0.1462,0.1493,0.1469,0.1473,0.1484,0.1538,0.1542,0.1546,0.1567,0.1573,0.1575,0.1576,0.1577,0.1672,0.1674,0,0,0,0,0,0,0.136,0.1363,0.1414,0.1418,0.1402,0.1441,0.1448,0.1454,0.1493,0.1501,0.1483,0.1486,0.1538,0.1544,0.1548,0.1611,0.1575,0.1577,0.1578,0.1671,0.1673,0.1674,0,0,0,0,0,0,0.1358,0.1363,0.1412,0.1395,0.1403,0.1442,0.1448,0.1455,0.1491,0.1504,0.1511,0.1517,0.1539,0.1546,0.159,0.1611,0.1578,0.158,0.1669,0.1671,0.1673,0.1691,0,0,0,0,0,0,0.1356,0.1362,0.1376,0.1395,0.1404,0.1443,0.1448,0.1455,0.1496,0.15,0.1535,0.154,0.154,0.1588,0.1592,0.1613,0.1581,0.1667,0.167,0.1673,0.1689,0.1694,0.1698,0,0,0,0,0,0.1353,0.1361,0.1376,0.1383,0.1418,0.1444,0.145,0.1479,0.1497,0.1514,0.1543,0.1541,0.1608,0.159,0.1595,0.1617,0.1666,0.1669,0.1673,0.1687,0.1693,0.1698,0,0,0,0,0,0,0.1344,0.1366,0.1384,0.1401,0.1432,0.1453,0.1473,0.1496,0.1531,0.1546,0.1557,0.1564,0.1609,0.1616,0.1596,0.1655,0.1638,0.1642,0.1647,0.1653,0.1657,0.1666,0.1583,0,0,0,0,0,0.1347,0.1362,0.1388,0.1411,0.1422,0.1455,0.1475,0.15,0.1529,0.1547,0.1573,0.1601,0.162,0.164,0.1658,0.1691,0.1719,0.1711,0.1716,0.1719,0.1732,0.1807,0.182,0.1685,0.1685,0.1685,0,0,0.1348,0.137,0.1377,0.1411,0.1435,0.145,0.1469,0.151,0.1528,0.1548,0.159,0.1619,0.1634,0.1668,0.1689,0.168,0.177,0.1723,0.1726,0.1737,0.1812,0.1825,0.1837,0.1687,0.1686,0.1686,0,0,0.1346,0.138,0.1381,0.1406,0.1453,0.1474,0.1493,0.1533,0.1556,0.1599,0.1617,0.1665,0.1697,0.1713,0.1721,0.1765,0.179,0.1778,0.1809,0.1882,0.1894,0.1905,0.1942,0.1956,0.1781,0.1781,0.1781,0,0.1351,0.1359,0.139,0.1401,0.1429,0.1484,0.1499,0.1523,0.1579,0.1608,0.1619,0.1711,0.1712,0.1765,0.1772,0.1774,0.1819,0.1781,0.1888,0.1899,0.191,0.1946,0.1961,0.1782,0.1782,0.1782,0.1782,0,0.1337,0.1358,0.1367,0.1397,0.143,0.1462,0.1499,0.1538,0.1584,0.1624,0.1708,0.1739,0.1806,0.1804,0.1792,0.1875,0.1882,0.1883,0.1872,0.1925,0.1959,0.1975,0.1784,0.1784,0.1783,0.1783,0,0,0.1315,0.1346,0.1356,0.1366,0.1438,0.1457,0.1497,0.1551,0.1598,0.167,0.1749,0.1781,0.1853,0.1869,0.1893,0.1939,0.2023,0.1947,0.195,0.1979,0.2183,0.2023,0.2024,0.2061,0.2064,0.2067,0.217,0,0.1301,0.1307,0.1342,0.1369,0.1372,0.1442,0.1476,0.1542,0.1617,0.1707,0.1781,0.1879,0.1864,0.1934,0.1976,0.2025,0.207,0.1995,0.2132,0.2135,0.1983,0.2039,0.2077,0.2182,0.2185,0.2188,0.219,0,0.1278,0.1285,0.1299,0.1346,0.1359,0.1401,0.1495,0.1542,0.1673,0.1735,0.1867,0.1963,0.207,0.2054,0.2177,0.2143,0.2167,0.2187,0.2192,0.205,0.2005,0.2123,0.2218,0.2216,0.2214,0.2212,0.221,0,0.1232,0.1261,0.1274,0.1291,0.1351,0.139,0.1453,0.157,0.1613,0.1813,0.19,0.2054,0.2155,0.2235,0.2282,0.2263,0.2396,0.2376,0.2253,0.2241,0.2346,0.2334,0.2463,0.2463,0.2463,0.2462,0.2462,0,0.1197,0.1203,0.1258,0.1264,0.1301,0.1376,0.1469,0.1537,0.1669,0.176,0.195,0.2052,0.2212,0.2311,0.2337,0.2336,0.2453,0.2269,0.2266,0.2348,0.2335,0.2356,0.2342,0.2466,0.2465,0.2465,0.2464,0,0.1131,0.1167,0.1179,0.1248,0.128,0.1322,0.1448,0.1503,0.1655,0.179,0.1873,0.2067,0.2218,0.2329,0.2451,0.2381,0.2414,0.238,0.2455,0.2453,0.2197,0.2184,0.227,0.2265,0.2261,0.2258,0.2255,0,0.1074,0.1074,0.1162,0.1176,0.1216,0.13,0.1355,0.1486,0.1561,0.1783,0.1838,0.2044,0.2178,0.223,0.2333,0.2393,0.2356,0.2349,0.2268,0.2193,0.2183,0.2175,0.2167,0.2249,0.2248,0.2247,0.2246,0,0.0955,0.1021,0.1042,0.109,0.1146,0.1203,0.1312,0.134,0.1521,0.1666,0.1797,0.1904,0.205,0.2152,0.2208,0.2237,0.2347,0.2308,0.2315,0.2239,0.2169,0.2161,0.2157,0.2232,0.2234,0.2236,0.2236,0,0.0869,0.0872,0.093,0.0971,0.1036,0.1084,0.1164,0.1267,0.1347,0.16,0.1637,0.1864,0.2032,0.207,0.2123,0.2144,0.2113,0.2036,0.2057,0.2073,0.1957,0.1836,0.1806,0,0,0,0,0,0.0772,0.0768,0.0789,0.0833,0.0911,0.096,0.1105,0.1199,0.1397,0.1446,0.1531,0.1679,0.1788,0.1889,0.1875,0.201,0.2097,0.198,0.2012,0.2157,0.2173,0.2052,0,0,0,0,0,0,0.0691,0.0705,0.0741,0.0725,0.074,0.081,0.0907,0.1043,0.1101,0.1313,0.1398,0.1549,0.1693,0.1776,0.1831,0.1858,0.1838,0.2102,0.2097,0.2148,0.2163,0.2175,0.2056,0,0,0,0,0]},{"header":{"parameterUnit":"m.s-1","parameterCategory":2,"la1":30.2991,"la2":30.254,"lo1":-89.0895,"lo2":-89.0444,"dy":0.0017,"dx":0.0017,"nx":28,"ny":28,"refTime":"2025-08-20T21:00:00:Z","depth":"4","parameterNumber":3,"parameterNumberName":"V-component_of_CURRENTS"},"data":[0,0,0,0,0,0,0,0,0,0,0,0,0,0,0,0,0,0,0,0,0,0,0,0,0,0,0,0,0,0,0,0,0,0,0,0,0,0,0,0,0,0,0,0,0,0,0,0,0,0,0,0,0,0,0,0,0,0,-0.0024,-0.0025,0,-0.0049,-0.0049,-0.0049,-0.008,-0.0081,-0.0081,-0.0081,-0.0136,-0.0137,-0.0138,0,0,0,0,0,0,0,0,0,0,0,0,0,-0.0017,-0.0017,-0.0024,-0.0025,-0.0025,-0.0049,-0.0049,-0.0049,-0.008,-0.0081,-0.0081,-0.0082,-0.0136,-0.0137,-0.0139,0,0,0,0,0,0,0,0,0,0,0,0,0,-0.003,-0.0017,-0.0024,-0.0043,-0.0044,-0.0049,-0.0049,-0.005,-0.008,-0.0081,-0.0081,-0.0082,-0.0136,-0.0137,-0.0139,-0.0136,0,0,-0.0144,-0.0144,0,0,0,0,0,0,0,0,-0.0029,-0.003,-0.004,-0.0041,-0.0043,-0.0061,-0.0067,-0.008,-0.008,-0.0067,-0.0081,-0.0082,-0.0113,-0.0117,-0.012,-0.0138,-0.0141,-0.0144,-0.0145,-0.0145,-0.0146,0,0,0,0,0,0,0,-0.0028,-0.0029,-0.0035,-0.004,-0.0042,-0.0054,-0.0056,-0.0069,-0.0087,-0.0068,-0.007,-0.0072,-0.0115,-0.0119,-0.0122,-0.0141,-0.0144,-0.0145,-0.0146,-0.0147,-0.0177,-0.0177,0,0,0,0,0,0,-0.0022,-0.0028,-0.0034,-0.0035,-0.0037,-0.0053,-0.0056,-0.0056,-0.0087,-0.0092,-0.0071,-0.0073,-0.0116,-0.012,-0.0124,-0.0121,-0.0145,-0.0147,-0.0148,-0.0177,-0.0177,-0.0177,0,0,0,0,0,0,-0.0022,-0.0022,-0.0033,-0.0032,-0.0034,-0.0053,-0.0052,-0.0056,-0.0062,-0.0088,-0.0094,-0.0074,-0.0116,-0.0122,-0.0135,-0.0123,-0.0148,-0.0149,-0.0178,-0.0177,-0.0177,-0.0116,0,0,0,0,0,0,-0.0021,-0.0022,-0.0019,-0.0031,-0.0034,-0.0029,-0.0051,-0.0056,-0.0061,-0.0064,-0.0092,-0.0098,-0.0117,-0.0133,-0.0137,-0.0126,-0.015,-0.0178,-0.0177,-0.0177,-0.0118,-0.0113,-0.0109,0,0,0,0,0,-0.0021,-0.001,-0.0019,-0.002,-0.0029,-0.0029,-0.0031,-0.0047,-0.006,-0.0056,-0.0079,-0.0097,-0.0134,-0.0134,-0.0139,-0.0128,-0.0178,-0.0178,-0.0177,-0.012,-0.0114,-0.011,0,0,0,0,0,0,-0.0005,-0.0012,-0.0022,-0.0014,-0.002,-0.0034,-0.0031,-0.0044,-0.0058,-0.0064,-0.0092,-0.0099,-0.0108,-0.0128,-0.0127,-0.0138,-0.016,-0.0161,-0.0115,-0.011,-0.0106,-0.0092,-0.0152,0,0,0,0,0,0.0,0.0005,-0.0005,0.0001,0.0001,-0.0016,-0.0018,-0.003,-0.0044,-0.0051,-0.007,-0.0093,-0.011,-0.0117,-0.0136,-0.0138,-0.0175,-0.0137,-0.0133,-0.0129,-0.0123,-0.0173,-0.0173,-0.0176,-0.0176,-0.0176,0,0,0.0007,0.0004,0.0006,0.0004,-0.0003,0.001,-0.0019,-0.0019,-0.001,-0.0054,-0.005,-0.0079,-0.0108,-0.0112,-0.0118,-0.0127,-0.0148,-0.0128,-0.0125,-0.0121,-0.0173,-0.0172,-0.0172,-0.0176,-0.0176,-0.0176,0,0,0.003,0.0021,0.0036,0.0039,0.0034,0.0026,0.0029,0.0017,0.001,0.0008,-0.0023,-0.0044,-0.0065,-0.0082,-0.0094,-0.0078,-0.0126,-0.0088,-0.0052,-0.01,-0.01,-0.0101,-0.015,-0.0155,-0.0083,-0.0083,-0.0083,0,0.0038,0.0058,0.0041,0.0061,0.007,0.0039,0.0063,0.0055,0.0039,0.0034,0.0017,-0.0026,-0.0048,-0.0058,-0.0051,-0.0067,-0.0108,-0.0065,-0.0094,-0.0096,-0.0097,-0.0147,-0.0154,-0.008,-0.0081,-0.0081,-0.0081,0,0.0077,0.0094,0.0105,0.0121,0.0127,0.0141,0.0132,0.013,0.0112,0.0095,0.0076,0.0038,0.0011,0.0001,-0.0016,-0.0034,-0.0064,-0.0085,-0.0104,-0.0093,-0.0147,-0.0155,-0.0076,-0.0077,-0.0078,-0.0079,0,0,0.0093,0.0127,0.0132,0.0153,0.0162,0.0171,0.0187,0.0189,0.0187,0.016,0.0154,0.0126,0.0086,0.007,0.0035,0.0,-0.0042,-0.004,-0.0044,-0.0083,-0.0157,-0.0154,-0.0163,-0.0073,-0.0074,-0.0075,-0.0191,0,0.0129,0.0184,0.019,0.0238,0.0265,0.0253,0.027,0.0262,0.0237,0.0219,0.0171,0.0148,0.0118,0.0098,0.006,-0.002,-0.0061,-0.0009,-0.0167,-0.0172,-0.0165,-0.0171,-0.0078,-0.0197,-0.0199,-0.0201,-0.0202,0,0.0166,0.0201,0.026,0.0299,0.0309,0.0331,0.0341,0.035,0.0314,0.0292,0.0252,0.0201,0.0153,0.0119,-0.0004,0.0026,-0.0056,-0.0119,-0.0126,-0.0148,-0.0183,-0.0212,-0.0217,-0.0216,-0.0215,-0.0214,-0.0213,0,0.0186,0.0246,0.0297,0.0314,0.0353,0.0373,0.0386,0.0369,0.0373,0.033,0.031,0.0238,0.0188,0.0091,-0.0034,-0.0027,-0.0185,-0.0197,-0.0271,-0.0273,-0.0269,-0.0267,-0.0288,-0.0288,-0.0288,-0.0288,-0.0287,0,0.0219,0.0256,0.0312,0.034,0.0391,0.0405,0.0434,0.0429,0.0416,0.0417,0.0346,0.0316,0.0174,0.0069,-0.0033,-0.0177,-0.019,-0.0266,-0.0301,-0.0241,-0.0235,-0.0275,-0.0272,-0.0292,-0.0291,-0.029,-0.0289,0,0.0222,0.0262,0.032,0.038,0.0402,0.0434,0.0475,0.0491,0.0471,0.0467,0.0456,0.0353,0.0222,0.0076,-0.0103,-0.0183,-0.0313,-0.0364,-0.0291,-0.0321,-0.037,-0.0363,-0.0453,-0.0454,-0.0455,-0.0456,-0.0456,0,0.0228,0.0262,0.0346,0.0386,0.0416,0.0467,0.0505,0.0517,0.0535,0.0494,0.0495,0.0364,0.0284,0.0041,-0.0118,-0.0325,-0.035,-0.0426,-0.0387,-0.0361,-0.0387,-0.0378,-0.037,-0.0457,-0.0457,-0.0457,-0.0458,0,0.0238,0.0267,0.032,0.0411,0.0469,0.0527,0.058,0.0597,0.0609,0.0582,0.0532,0.0403,0.0241,0.0054,-0.0123,-0.0264,-0.0375,-0.0433,-0.0432,-0.0396,-0.0367,-0.0389,-0.0381,-0.046,-0.046,-0.0459,-0.0459,0,0.0248,0.0281,0.0362,0.0441,0.0513,0.0582,0.0602,0.0635,0.0651,0.0614,0.059,0.0426,0.0317,0.0083,-0.0069,-0.0219,-0.0249,-0.0287,-0.0294,-0.0293,-0.0207,-0.0144,-0.0199,0,0,0,0,0,0.0267,0.0318,0.0389,0.0486,0.0555,0.0601,0.0659,0.0673,0.0677,0.0659,0.0633,0.0497,0.0259,0.0142,-0.0003,-0.0092,-0.0286,-0.0269,-0.0334,-0.0473,-0.047,-0.0396,0,0,0,0,0,0,0.0283,0.0356,0.0397,0.0513,0.0576,0.0661,0.0699,0.0701,0.0691,0.0665,0.0543,0.0466,0.0232,0.0349,-0.0003,-0.0055,-0.0115,-0.0389,-0.0392,-0.0475,-0.0472,-0.047,-0.0392,0,0,0,0,0]}]]